TimeCDT,TemperatureF,Dew PointF,Humidity,Sea Level PressureIn,VisibilityMPH,Wind Direction,Wind SpeedMPH,Gust SpeedMPH,PrecipitationIn,Events,Conditions,WindDirDegrees,DateUTC
12:15 AM,59.9,57.6,92,30.00,5.0,SSE,15.0,21.9,N/A,,Overcast,160,2013-07-29 05:15:00
12:35 AM,60.1,57.7,92,30.00,5.0,South,17.3,-,N/A,,Overcast,170,2013-07-29 05:35:00
12:55 AM,60.1,57.6,91,30.01,7.0,South,18.4,23.0,N/A,,Overcast,170,2013-07-29 05:55:00
1:15 AM,59.9,57.2,91,30.00,7.0,South,19.6,26.5,N/A,,Overcast,170,2013-07-29 06:15:00
1:35 AM,59.9,57.4,91,30.00,7.0,SSE,16.1,-,N/A,,Overcast,160,2013-07-29 06:35:00
1:55 AM,60.1,57.4,91,30.00,7.0,South,18.4,24.2,N/A,Thunderstorm,Overcast,170,2013-07-29 06:55:00
2:15 AM,60.1,57.7,92,29.99,5.0,South,16.1,24.2,N/A,,Overcast,170,2013-07-29 07:15:00
2:55 AM,59.9,58.3,94,29.99,2.5,South,12.7,-,N/A,,Overcast,170,2013-07-29 07:55:00
3:15 AM,60.1,58.5,94,29.99,3.0,SSE,12.7,-,N/A,,Overcast,160,2013-07-29 08:15:00
3:55 AM,60.8,59.0,94,30.01,4.0,SE,8.1,-,N/A,,Overcast,140,2013-07-29 08:55:00
4:15 AM,60.8,59.0,94,30.03,4.0,East,3.5,-,N/A,,Overcast,80,2013-07-29 09:15:00
4:55 AM,60.1,58.6,95,30.02,1.2,East,8.1,-,N/A,,Light Drizzle,90,2013-07-29 09:55:00
5:15 AM,60.1,58.6,95,30.01,1.5,East,6.9,-,N/A,Rain,Light Rain,90,2013-07-29 10:15:00
5:35 AM,59.9,58.6,96,30.01,1.5,ESE,8.1,-,N/A,,Overcast,120,2013-07-29 10:35:00
5:55 AM,59.9,58.6,96,30.01,1.5,ESE,8.1,-,N/A,,Overcast,120,2013-07-29 10:55:00
6:15 AM,59.9,58.6,96,30.00,1.5,SE,9.2,-,N/A,,Overcast,140,2013-07-29 11:15:00
6:35 AM,59.9,58.6,96,30.00,0.8,SE,9.2,-,N/A,,Overcast,140,2013-07-29 11:35:00
6:55 AM,60.1,59.0,96,30.00,0.8,SSE,9.2,-,N/A,,Overcast,160,2013-07-29 11:55:00
7:15 AM,60.1,59.0,96,30.00,0.5,SSE,10.4,-,N/A,Fog,Fog,160,2013-07-29 12:15:00
7:35 AM,60.3,59.0,96,30.00,1.0,South,9.2,-,N/A,,Overcast,170,2013-07-29 12:35:00
7:55 AM,60.4,59.2,96,30.01,2.0,South,9.2,-,N/A,,Overcast,180,2013-07-29 12:55:00
8:15 AM,60.4,59.2,96,30.01,1.2,South,9.2,-,N/A,,Overcast,180,2013-07-29 13:15:00
8:35 AM,59.9,58.5,95,30.02,0.5,South,10.4,-,N/A,Fog,Fog,190,2013-07-29 13:35:00
8:55 AM,59.9,58.6,96,30.02,0.2,South,9.2,-,N/A,Fog,Fog,190,2013-07-29 13:55:00
9:15 AM,60.1,59.0,96,30.03,0.8,SSW,8.1,-,N/A,,Overcast,210,2013-07-29 14:15:00
9:35 AM,60.8,59.7,96,30.03,2.5,SW,10.4,-,N/A,,Overcast,220,2013-07-29 14:35:00
9:55 AM,62.4,60.6,94,30.04,5.0,SW,10.4,-,N/A,,Overcast,220,2013-07-29 14:55:00
10:15 AM,64.4,60.1,86,30.04,10.0,SW,10.4,-,N/A,,Overcast,220,2013-07-29 15:15:00
10:35 AM,66.4,59.7,79,30.04,10.0,SW,9.2,-,N/A,,Overcast,220,2013-07-29 15:35:00
10:55 AM,68.5,59.4,72,30.04,10.0,WSW,6.9,-,N/A,,Scattered Clouds,250,2013-07-29 15:55:00
11:15 AM,69.8,59.2,69,30.04,10.0,SW,4.6,-,N/A,,Clear,230,2013-07-29 16:15:00
11:35 AM,72.3,59.2,63,30.04,10.0,West,6.9,-,N/A,,Clear,280,2013-07-29 16:35:00
11:55 AM,73.4,57.4,57,30.04,10.0,WNW,8.1,-,N/A,,Clear,300,2013-07-29 16:55:00
12:15 PM,74.8,57.0,54,30.04,10.0,WNW,9.2,-,N/A,,Scattered Clouds,300,2013-07-29 17:15:00
12:35 PM,75.7,57.6,53,30.04,10.0,North,6.9,-,N/A,,Scattered Clouds,350,2013-07-29 17:35:00
12:55 PM,77.9,55.9,47,30.04,10.0,NNW,15.0,-,N/A,,Scattered Clouds,340,2013-07-29 17:55:00
1:15 PM,78.8,55.9,45,30.04,10.0,NNW,15.0,18.4,N/A,,Scattered Clouds,330,2013-07-29 18:15:00
1:35 PM,77.9,56.1,47,30.05,10.0,NNW,16.1,21.9,N/A,,Mostly Cloudy,340,2013-07-29 18:35:00
1:55 PM,78.6,55.6,45,30.05,10.0,NW,10.4,18.4,N/A,,Scattered Clouds,320,2013-07-29 18:55:00
2:15 PM,77.4,55.4,47,30.06,10.0,North,11.5,17.3,N/A,,Scattered Clouds,10,2013-07-29 19:15:00
2:35 PM,78.8,56.5,46,30.07,10.0,North,8.1,17.3,N/A,,Scattered Clouds,10,2013-07-29 19:35:00
2:55 PM,77.0,57.0,50,30.07,10.0,North,11.5,16.1,N/A,,Scattered Clouds,10,2013-07-29 19:55:00
3:15 PM,76.6,57.6,52,30.07,10.0,NNE,10.4,-,N/A,,Scattered Clouds,20,2013-07-29 20:15:00
3:35 PM,79.5,55.2,43,30.08,10.0,North,11.5,-,N/A,,Scattered Clouds,360,2013-07-29 20:35:00
3:55 PM,79.9,53.1,39,30.08,10.0,North,11.5,17.3,N/A,,Clear,350,2013-07-29 20:55:00
4:15 PM,79.2,54.0,42,30.08,10.0,North,9.2,-,N/A,,Clear,350,2013-07-29 21:15:00
4:35 PM,77.7,52.3,41,30.08,10.0,NNW,9.2,-,N/A,,Clear,340,2013-07-29 21:35:00
4:55 PM,78.1,52.3,41,30.09,10.0,NNW,10.4,-,N/A,,Clear,340,2013-07-29 21:55:00
5:15 PM,77.7,52.5,41,30.10,10.0,North,5.8,-,N/A,,Clear,10,2013-07-29 22:15:00
5:35 PM,78.1,51.4,39,30.10,10.0,North,6.9,-,N/A,,Clear,360,2013-07-29 22:35:00
5:55 PM,78.8,51.4,38,30.10,10.0,North,8.1,-,N/A,,Clear,360,2013-07-29 22:55:00
6:15 PM,78.1,51.4,39,30.10,10.0,North,8.1,-,N/A,,Clear,350,2013-07-29 23:15:00
6:35 PM,77.5,50.9,39,30.10,10.0,North,3.5,-,N/A,,Clear,350,2013-07-29 23:35:00
6:55 PM,77.0,51.3,40,30.10,10.0,North,9.2,-,N/A,,Clear,350,2013-07-29 23:55:00
7:15 PM,76.1,52.7,44,30.10,10.0,NNW,5.8,-,N/A,,Mostly Cloudy,330,2013-07-30 00:15:00
7:35 PM,76.1,51.6,42,30.10,10.0,NNW,6.9,-,N/A,,Mostly Cloudy,330,2013-07-30 00:35:00
7:55 PM,75.7,54.0,47,30.11,10.0,NNW,3.5,-,N/A,,Clear,330,2013-07-30 00:55:00
8:15 PM,75.2,54.3,48,30.11,10.0,Calm,Calm,-,N/A,,Clear,0,2013-07-30 01:15:00
8:35 PM,74.8,54.0,48,30.11,10.0,Calm,Calm,-,N/A,,Scattered Clouds,0,2013-07-30 01:35:00
8:55 PM,73.8,55.9,54,30.13,10.0,Calm,Calm,-,N/A,,Scattered Clouds,0,2013-07-30 01:55:00
9:15 PM,72.3,57.4,59,30.13,10.0,NNE,3.5,-,N/A,,Mostly Cloudy,20,2013-07-30 02:15:00
9:35 PM,70.7,58.1,64,30.14,10.0,East,3.5,-,N/A,,Clear,80,2013-07-30 02:35:00
9:55 PM,70.2,59.4,69,30.15,10.0,Calm,Calm,-,N/A,,Clear,0,2013-07-30 02:55:00
10:15 PM,70.7,59.4,67,30.15,10.0,Calm,Calm,-,N/A,,Clear,0,2013-07-30 03:15:00
10:35 PM,70.3,59.7,69,30.15,10.0,SSE,3.5,-,N/A,,Clear,160,2013-07-30 03:35:00
10:55 PM,68.0,59.9,75,30.16,10.0,Calm,Calm,-,N/A,,Clear,0,2013-07-30 03:55:00
11:15 PM,68.5,60.1,74,30.17,10.0,Calm,Calm,-,N/A,,Clear,0,2013-07-30 04:15:00
11:35 PM,67.3,60.4,79,30.16,10.0,WSW,5.8,-,N/A,,Clear,250,2013-07-30 04:35:00
11:55 PM,68.2,59.5,74,30.15,10.0,South,5.8,-,N/A,,Clear,190,2013-07-30 04:55:00